Tracking 20712 objects as of 29-May-2020
HD Live streaming from Space Station
objects crossing your sky now

IRIDIUM 33 DEB

Track IRIDIUM 33 DEB now!
10-day predictions


NORAD ID: 35802
Int'l Code: 1997-051SL
Perigee: 680.0 km
Apogee: 821.1 km
Inclination: 86.5 °
Period: 99.7 minutes
Semi major axis: 7121 km
RCS: 0.0126 m2 (small)
Launch date: September 14, 1997
Source: United States (US)
Launch site: TYURATAM MISSILE AND SPACE COMPLEX (TTMTR)

Note: This is SATELLITE DEBRIS
aabbcc
Your satellite tracking list
Your tracking list is empty




NASA's NSSDC Master Catalog

Two Line Element Set (TLE):
1 35802U 97051SL  20149.23586389  .00000823  00000-0  21803-3 0  9990
2 35802  86.4546 246.1612 0099114  75.7392 285.4792 14.44580179583345
Source of the keplerian elements: AFSPC